RH
68 73 77 80 83 84 84 84 84 79 70 64 62 59 57 52 46 39 35 30 27 24 22 20 19 18 18 17 17 17 16 16 16 15 15 15 15 15 15 15 15 15 14 14 13 13 12 11 11 10 10 10 9 10 12 13 16 18 20 22 23 25 26 27 28 30 35 37 37 39 41 42 44 45 47 49 50 50 51 52 54 55 56 57 59
68 72 76 80 83 84 84 86 87 82 72 66 66 66 63 60 53 45 38 33 29 26 24 22 21 19 19 18 18 17 17 17 17 16 16 16 16 16 16 16 16 16 15 15 14 14 13 12 12 11 11 11 10 11 13 16 19 22 25 27 29 30 32 34 35 35 38 40 41 42 43 45 47 48 49 51 52 52 53 54 56 57 58 59 60
66 71 75 79 82 83 85 88 90 86 75 69 70 72 70 66 59 50 41 35 31 28 26 24 23 21 20 19 19 18 18 18 18 17 17 17 17 17 17 17 17 17 17 16 15 15 14 13 13 12 12 11 12 14 17 21 24 28 31 33 35 36 37 39 40 40 42 43 44 45 46 48 50 51 51 53 54 55 56 57 58 60 62 62 63
65 69 73 78 81 83 86 89 93 89 79 73 76 78 75 70 64 55 44 35 32 29 27 26 24 23 21 20 20 20 20 20 19 19 19 19 19 19 18 18 18 18 18 17 16 16 15 14 14 13 13 13 14 17 22 26 30 34 37 39 41 42 43 44 44 44 45 46 47 48 49 50 52 53 54 55 56 57 58 60 63 64 65 66 67
66 69 73 78 80 83 86 89 94 93 83 78 80 80 75 70 65 57 45 36 32 30 28 27 26 24 23 22 22 22 21 21 21 21 21 20 20 20 20 20 20 19 19 18 17 17 16 15 15 14 14 16 19 22 26 31 36 39 42 44 46 48 48 49 49 49 49 50 50 51 52 53 54 55 56 57 59 61 60 61 64 67 70 70 70
73 73 75 79 80 83 87 89 94 95 87 81 83 81 73 67 64 56 45 36 32 30 29 28 27 26 25 24 24 24 23 23 23 23 23 22 22 22 22 22 21 20 20 19 18 18 17 16 16 16 17 19 22 27 31 36 40 44 46 49 51 53 53 53 53 53 53 53 54 54 55 56 57 57 58 59 60 64 67 68 67 68 70 71 72
87 84 82 81 82 85 89 91 94 97 92 85 86 83 73 66 62 53 41 34 31 30 29 28 28 27 27 26 26 26 25 25 25 25 25 24 24 24 24 23 23 22 21 21 20 19 18 18 18 19 21 23 27 31 36 40 44 48 51 53 56 57 57 57 57 58 58 58 57 57 57 57 58 58 60 61 61 63 67 72 73 72 71 72 72
95 96 94 91 89 90 91 92 95 98 95 90 89 85 74 66 60 48 37 32 31 30 29 29 29 29 29 28 28 28 28 28 28 27 27 27 26 26 26 25 24 23 23 22 21 20 19 20 20 22 25 27 31 36 40 44 48 52 55 57 60 61 61 62 62 62 62 61 60 60 59 58 58 58 59 62 65 67 68 71 74 75 74 72 70
90 95 98 98 97 97 96 97 98 100 98 95 91 84 73 66 58 44 35 33 32 31 31 31 31 31 31 31 31 31 32 32 31 31 31 30 30 29 28 27 25 24 23 22 21 21 21 21 22 25 28 31 35 39 43 47 51 55 59 61 64 65 65 66 66 65 65 64 63 62 60 59 59 60 62 64 67 71 73 74 74 74 73 70 67
87 90 94 97 99 100 100 100 99 100 100 97 91 82 74 66 56 43 36 35 34 33 33 32 32 32 32 32 33 33 34 34 34 34 33 32 32 30 28 27 25 24 23 22 22 22 22 23 24 26 30 34 37 41 45 50 54 58 62 65 67 69 70 70 70 69 69 67 66 64 63 62 61 61 64 67 69 72 74 75 75 73 71 67 60
88 90 91 93 96 98 99 100 100 100 100 99 92 83 75 66 55 45 40 38 37 36 35 35 35 34 34 34 34 34 34 35 34 34 33 32 31 29 28 26 25 24 23 22 23 23 23 24 26 28 32 36 40 44 48 52 57 61 66 69 71 73 74 75 74 73 72 70 68 66 64 63 63 64 66 69 72 74 74 75 74 72 69 65 57
90 90 90 91 93 95 97 98 99 100 100 100 95 86 77 68 58 50 44 42 40 39 39 39 39 39 38 37 36 35 34 35 34 34 33 32 30 29 27 26 24 24 23 23 24 24 24 25 27 30 34 38 42 46 51 56 61 66 70 73 75 77 78 78 78 77 76 74 71 69 67 65 65 66 69 72 74 76 75 73 72 70 67 63 58
90 89 91 93 94 94 95 95 98 100 100 100 97 87 77 69 61 54 49 46 45 44 44 43 42 42 41 40 39 37 35 35 35 34 33 31 30 28 27 25 24 23 23 24 24 24 25 26 28 32 36 40 44 49 55 62 67 71 76 78 80 81 81 82 82 81 79 77 74 71 68 67 68 70 72 75 76 77 76 73 70 67 63 59 56
91 92 95 97 96 97 97 97 100 100 99 101 97 86 77 71 65 59 55 52 50 48 47 45 44 43 43 43 41 39 37 36 35 34 33 32 30 28 26 25 24 23 23 24 24 24 26 27 29 32 37 41 47 53 60 66 72 77 80 83 84 85 86 86 85 84 81 79 76 72 70 68 69 72 74 77 78 77 76 73 68 64 60 55 54
92 93 97 99 98 99 99 99 100 100 99 101 95 85 78 74 68 66 64 58 52 50 49 47 46 45 45 45 44 42 39 37 36 35 33 31 29 27 26 24 23 22 22 23 23 24 25 28 30 33 37 43 50 57 64 71 78 82 85 88 90 90 91 90 89 86 83 81 77 74 72 70 70 73 77 80 81 78 76 73 68 65 61 56 52
96 97 99 100 99 100 100 100 100 99 100 99 93 85 80 73 68 70 68 60 53 51 50 49 48 49 49 48 47 44 41 39 37 35 33 31 29 27 25 24 23 22 21 21 22 23 25 27 30 33 39 45 51 59 68 75 82 87 89 92 95 95 95 93 91 89 86 82 80 76 74 73 72 76 80 81 82 80 76 72 68 65 62 57 51
95 99 99 99 99 100 100 100 100 99 100 98 92 86 80 70 66 68 66 59 55 54 52 50 51 51 52 51 50 47 43 40 38 36 33 31 29 26 25 23 22 21 21 21 22 23 24 26 29 33 38 44 50 59 69 76 83 88 90 92 95 96 96 94 92 91 88 84 81 77 75 75 75 78 83 83 83 81 77 72 67 64 60 56 51
91 97 98 99 99 100 100 100 100 100 100 97 92 86 77 66 63 65 62 59 58 58 56 54 53 53 53 53 51 49 46 42 39 37 34 32 29 27 25 23 22 21 20 20 21 22 22 24 28 31 36 41 48 58 68 75 81 87 89 91 94 95 95 94 93 92 89 85 82 79 77 77 78 81 85 86 84 81 76 71 67 62 57 53 50
89 95 98 99 99 100 100 100 100 100 100 96 93 88 75 64 64 68 68 68 69 68 65 61 56 54 55 54 53 51 47 44 41 38 35 32 30 28 25 24 23 22 21 20 20 20 21 22 24 27 31 38 46 56 67 73 79 84 87 89 93 95 95 94 93 92 90 85 82 80 78 79 81 84 87 86 83 79 74 70 65 59 54 48 43
91 96 99 99 100 100 101 100 100 100 100 97 96 92 80 68 68 73 76 80 81 78 72 67 61 57 56 54 53 52 49 45 42 39 37 34 31 29 27 25 25 24 23 21 21 20 21 22 23 25 28 35 44 54 65 72 77 83 86 88 92 93 93 93 92 92 90 87 84 81 80 82 85 87 88 85 81 76 71 66 59 53 48 42 36
93 98 99 100 100 100 100 100 100 100 100 98 99 98 89 80 77 80 84 86 85 80 75 70 65 61 58 55 53 52 50 47 44 40 38 36 33 31 29 28 28 27 25 24 24 23 23 23 24 25 27 32 41 53 64 72 78 82 84 87 90 91 92 93 91 90 90 87 85 82 81 85 88 90 89 85 79 73 66 59 52 46 42 37 31
94 99 100 100 100 100 100 100 100 100 100 100 100 100 97 94 93 93 93 88 83 80 76 71 68 66 60 55 54 53 51 49 46 43 40 38 36 34 32 31 31 31 29 29 28 27 26 26 26 27 29 32 39 51 63 73 80 84 85 87 90 91 91 91 91 90 90 88 86 83 82 85 89 91 90 85 78 72 64 56 49 42 37 32 29
96 100 100 100 100 100 100 100 100 101 100 100 101 100 99 100 100 98 94 86 81 81 78 73 71 68 62 57 55 55 54 50 47 45 43 40 38 37 36 35 35 34 34 33 32 31 31 30 29 31 33 36 41 50 62 73 81 85 87 88 90 91 92 91 90 91 91 88 86 84 84 86 88 90 90 85 78 70 62 53 46 39 34 31 28
99 101 100 100 100 100 100 100 100 101 100 100 102 101 100 100 100 98 93 87 85 83 80 76 74 70 64 59 56 56 57 54 50 48 46 44 42 40 39 39 39 38 38 38 37 36 36 35 34 34 35 39 43 50 61 73 82 86 88 90 91 92 92 91 91 92 91 88 86 86 86 87 88 90 89 84 75 66 57 49 42 36 32 30 26
100 100 99 100 100 99 100 100 100 100 100 100 101 101 100 100 100 99 95 90 89 86 82 79 76 71 66 62 59 58 59 58 55 52 50 48 45 43 43 43 43 43 43 43 42 41 40 40 40 39 39 42 45 51 62 73 82 86 89 91 93 93 92 92 93 93 91 88 87 87 88 89 90 90 87 81 72 63 54 45 37 32 30 28 27
100 100 100 100 100 100 100 100 100 100 100 100 100 100 100 100 100 100 96 92 90 89 87 83 78 72 67 65 63 62 61 61 59 56 54 53 50 48 46 46 47 47 47 47 47 47 46 46 45 44 44 45 47 53 63 73 82 87 90 92 94 93 91 92 94 93 91 88 87 87 88 90 91 90 86 78 68 59 50 42 35 31 29 30 31
100 100 100 100 100 100 100 100 100 100 100 100 100 100 100 100 100 100 99 95 92 90 90 87 81 75 69 68 67 65 64 63 62 60 60 60 57 54 51 51 51 52 52 53 53 53 53 53 51 50 49 48 50 54 62 73 83 88 91 94 95 93 91 92 94 93 90 88 87 86 87 90 91 89 84 75 64 52 45 40 36 32 30 32 35
100 99 100 100 100 100 100 100 100 100 100 100 100 100 100 100 100 100 100 99 95 92 91 89 85 78 73 71 71 70 69 67 66 66 66 65 63 61 59 58 58 58 58 59 60 60 60 59 57 55 53 52 51 54 61 74 84 89 92 95 95 93 91 92 94 92 90 88 86 85 87 90 90 88 82 71 57 46 41 37 34 32 33 35 36
100 100 100 100 100 100 100 100 100 100 100 100 100 100 100 100 100 100 100 100 98 94 91 91 88 81 76 76 76 75 76 75 73 73 73 71 69 68 66 66 67 66 65 65 66 66 65 63 61 59 57 55 54 54 61 73 85 91 93 95 94 91 90 91 92 91 90 88 86 85 87 90 90 86 78 65 51 42 37 33 31 33 36 37 35
100 100 100 100 100 100 100 100 100 100 100 100 100 100 100 100 100 100 100 100 100 98 96 96 92 84 80 80 80 81 83 83 81 80 80 78 77 75 72 70 70 71 71 70 69 68 67 65 63 62 59 57 55 54 59 73 88 95 96 96 94 91 91 93 93 92 91 89 86 86 88 89 88 83 72 59 47 37 32 31 32 35 38 35 29
100 100 99 100 100 100 100 100 100 100 100 100 100 100 100 100 100 100 100 100 100 100 100 100 97 92 86 84 85 88 90 91 90 89 87 86 85 83 78 74 71 71 71 69 67 66 65 63 63 62 61 59 56 54 61 77 92 97 97 96 94 92 93 94 93 92 92 89 86 88 90 89 87 79 66 54 44 36 32 33 35 37 36 31 23
100 99 100 100 99 100 100 100 100 100 100 100 100 100 100 100 100 100 100 100 100 100 100 100 101 99 95 89 89 92 96 97 97 96 95 92 89 85 81 76 71 68 67 64 62 61 60 59 60 61 61 60 57 57 68 86 97 99 98 97 95 93 93 93 92 92 91 88 87 90 91 89 84 73 59 49 41 37 35 36 37 37 32 25 20
100 100 100 100 99 100 100 99 100 100 100 100 100 100 100 100 100 100 100 100 100 100 100 100 100 101 100 97 95 97 99 100 100 100 98 95 90 84 78 73 68 64 61 58 55 53 52 52 55 58 61 63 62 64 77 95 103 102 100 98 95 94 94 92 92 91 89 87 89 91 91 88 79 65 53 44 39 37 38 38 37 32 25 20 20
100 100 100 100 100 100 100 100 100 100 100 100 100 100 100 100 100 100 100 100 100 100 100 100 101 100 100 101 100 100 100 100 101 100 96 91 85 79 73 68 63 59 54 49 45 42 41 43 48 55 62 68 69 73 87 101 104 103 102 99 94 93 95 94 93 91 88 87 90 92 90 84 72 59 48 41 38 39 39 37 33 26 21 20 19
99 100 100 100 100 100 100 100 100 100 100 100 100 100 100 100 100 100 100 100 100 100 100 100 101 100 100 100 101 101 100 99 98 96 90 83 77 71 66 61 55 50 43 37 34 32 33 37 45 56 66 73 77 84 96 103 102 102 102 98 93 94 96 94 92 91 89 89 92 93 88 79 65 53 45 40 39 40 38 34 28 22 20 20 16
100 100 101 101 101 100 100 100 100 100 100 100 100 100 100 100 100 100 100 100 100 100 100 100 100 100 100 100 100 100 99 97 93 88 81 74 68 63 57 51 45 38 32 28 27 28 29 34 45 60 73 80 85 93 101 102 100 101 100 96 94 96 96 93 92 91 89 91 93 92 85 72 58 48 43 40 40 39 35 29 24 21 20 18 12
101 101 101 101 101 100 100 100 100 100 100 100 100 100 100 100 100 100 100 100 100 99 100 100 100 100 100 100 99 98 95 90 85 78 71 65 59 53 47 40 33 29 25 23 24 29 33 41 53 67 79 87 94 99 102 100 99 100 98 95 96 97 95 93 92 90 90 93 93 88 79 65 52 45 42 41 39 37 31 25 21 21 20 15 10
100 100 100 100 100 100 100 100 100 100 100 100 100 100 100 100 100 100 100 100 100 100 100 100 100 101 101 99 96 93 89 83 76 68 61 55 48 41 35 30 27 25 24 24 26 30 39 53 69 80 88 94 100 102 101 100 99 98 96 97 99 97 95 93 92 90 91 93 91 84 71 57 46 42 41 41 38 32 26 22 21 19 15 11 10
100 100 100 100 100 100 100 100 100 100 100 100 100 100 100 100 100 100 100 100 100 100 101 100 100 100 99 96 92 88 82 75 66 57 50 44 37 32 29 26 25 26 27 30 33 35 43 62 81 92 96 99 102 101 100 99 98 96 97 99 99 97 95 94 92 91 92 93 88 77 63 49 42 41 41 39 34 27 22 22 21 16 11 10 10
100 100 100 100 100 100 100 100 100 100 100 100 100 100 100 100 100 100 100 100 101 101 100 100 99 97 94 90 85 79 72 64 55 47 41 35 31 29 28 28 29 31 33 37 41 45 54 70 86 95 100 102 102 100 98 97 96 96 99 101 99 96 95 94 92 92 94 92 83 68 54 44 41 41 40 36 29 23 22 22 19 14 10 9 12
102 101 101 100 100 100 100 100 100 100 100 100 100 100 100 100 100 100 100 101 101 101 99 97 95 91 86 80 73 65 58 51 44 39 35 32 30 30 31 32 35 38 41 45 50 57 68 81 91 98 102 104 102 99 97 97 97 99 101 101 98 96 95 94 93 94 94 87 74 58 47 42 41 41 38 32 25 23 24 21 16 12 9 9 21
103 102 101 101 100 100 100 100 100 100 100 100 100 100 100 100 100 101 100 100 99 98 95 91 86 80 73 65 58 52 47 42 39 37 35 34 34 34 35 38 41 45 50 55 61 70 80 89 96 101 104 103 101 99 98 98 99 101 101 100 97 97 95 93 94 95 91 78 63 50 43 41 42 40 34 27 23 24 23 18 12 10 8 16 39
102 101 100 100 99 99 100 99 99 99 99 99 99 100 100 99 99 98 97 95 93 89 84 78 72 66 59 54 49 46 44 42 40 39 40 40 40 40 42 45 48 52 58 65 72 80 88 95 100 102 101 100 100 100 100 101 102 101 100 99 97 96 95 94 95 94 83 67 53 45 41 41 41 36 29 25 24 24 20 14 9 8 13 33 63
96 98 99 99 99 99 99 98 99 99 99 99 99 98 97 96 94 92 89 86 82 77 72 67 62 57 53 50 48 47 47 46 45 45 45 47 48 48 49 52 56 61 68 74 80 87 94 99 101 101 99 99 100 100 101 102 103 101 99 99 98 96 95 96 95 88 73 57 47 42 41 41 38 31 27 25 24 20 15 10 7 11 28 56 82
80 86 91 95 97 99 100 100 100 100 99 98 96 93 91 89 86 83 79 76 71 68 64 61 58 56 54 53 52 51 50 51 52 51 51 52 54 55 57 59 63 70 77 82 87 92 97 99 99 99 99 100 101 102 102 102 101 100 99 99 98 96 97 97 91 77 62 50 43 41 41 39 33 28 26 25 21 16 11 7 9 23 49 76 93
65 72 78 84 89 93 95 95 95 93 91 89 87 84 82 80 77 75 73 71 69 66 64 62 60 59 57 57 57 56 56 57 57 57 57 57 59 61 64 68 72 78 84 88 93 96 98 98 99 99 100 100 102 103 103 101 100 100 100 98 97 97 98 94 82 66 53 46 43 42 39 35 30 27 25 22 17 12 7 7 19 42 70 90 98
58 63 68 74 78 82 83 84 84 83 82 80 79 78 77 75 74 73 72 71 69 68 66 64 63 62 62 62 63 63 62 61 61 61 62 63 65 69 73 77 82 87 90 94 96 97 97 98 100 100 100 102 104 104 102 101 100 100 99 98 98 99 95 85 70 55 46 44 43 40 35 30 27 26 23 18 13 8 7 16 38 65 85 96 100
58 62 67 71 75 77 79 80 80 80 79 79 78 78 77 77 76 75 74 73 71 69 68 67 67 68 69 69 69 67 66 65 65 66 68 71 74 78 83 87 91 95 97 98 98 98 98 100 100 100 100 103 105 103 101 101 101 100 98 98 99 96 87 73 58 48 44 44 42 37 30 27 26 24 19 14 8 6 14 35 62 82 92 97 100
59 64 69 74 78 80 81 81 82 81 80 80 80 80 80 79 79 78 76 75 73 71 71 72 73 75 75 74 72 70 69 69 71 74 77 80 84 87 91 95 98 101 102 102 101 100 100 100 100 100 101 103 103 102 101 101 100 99 99 100 97 89 75 61 50 44 43 43 39 32 27 26 24 20 15 10 6 11 31 59 80 89 93 97 100
56 64 71 78 82 85 86 86 86 85 84 83 84 84 83 83 82 80 79 77 76 75 75 77 79 80 79 77 75 74 73 75 79 82 85 88 91 94 97 100 102 103 103 102 101 100 100 100 100 100 101 102 102 101 101 100 99 99 100 98 91 78 64 52 46 44 43 40 34 28 26 25 21 16 11 6 9 26 54 77 88 91 95 99 101
45 58 70 78 84 89 92 92 91 90 90 90 90 89 88 87 86 84 82 80 79 79 81 83 84 84 81 79 78 78 79 82 86 89 91 93 96 99 102 103 103 102 101 101 100 100 100 100 100 100 101 102 102 101 100 99 100 101 99 92 80 66 54 47 44 43 40 35 29 26 24 22 17 11 7 8 23 49 75 87 91 94 98 100 100
Wind_Speed
29 29 30 31 30 30 29 28 29 28 26 26 27 28 29 29 29 29 29 28 28 28 27 26 26 26 26 26 26 26 26 26 27 27 28 28 28 29 29 29 29 29 29 29 29 30 30 30 31 30 30 30 30 29 29 29 29 29 29 30 31 31 32 33 34 34 33 33 34 35 35 34 34 33 33 32 32 32 31 30 30 30 30 29 29
31 31 32 32 30 30 28 28 29 27 25 25 27 28 30 30 31 30 29 29 29 28 28 27 27 27 26 26 26 26 27 27 27 28 28 28 29 29 29 30 30 30 30 30 30 30 31 31 31 31 31 30 30 29 29 28 29 29 29 30 31 31 32 32 33 34 34 33 34 34 34 34 34 33 33 32 32 32 32 31 30 30 30 30 29
32 32 33 32 31 30 29 29 29 27 24 25 26 28 30 31 32 32 31 30 30 29 29 28 27 27 27 27 27 27 27 27 28 28 28 29 29 30 30 30 30 30 30 31 31 31 31 32 32 32 31 31 30 29 29 28 28 29 29 30 31 31 32 32 33 33 33 33 33 33 33 33 33 33 33 33 32 32 32 31 31 30 29 29 29
34 34 33 33 32 31 30 30 29 27 25 24 25 28 30 32 33 33 32 32 31 30 30 29 28 28 27 27 27 27 27 27 28 28 29 29 29 30 30 30 30 30 30 31 31 31 31 31 31 31 31 30 29 29 28 28 28 28 29 30 31 31 32 32 32 32 32 32 32 32 33 33 33 33 33 33 33 33 32 31 30 29 29 28 28
34 34 34 34 33 32 32 30 29 28 25 24 25 28 31 34 34 33 33 32 32 31 30 30 29 29 28 28 28 28 28 28 28 28 29 29 29 30 30 30 30 30 30 31 31 31 31 31 31 31 30 30 29 29 28 28 28 28 29 30 31 31 31 32 32 32 32 32 32 32 32 32 33 33 33 33 33 33 33 32 30 28 27 27 27
35 35 35 35 34 33 33 31 30 29 26 24 25 28 32 35 35 33 32 32 31 31 30 29 29 28 28 28 28 28 28 28 28 29 29 29 29 29 29 30 30 30 30 30 30 30 30 30 30 30 30 29 29 29 28 28 28 29 29 30 31 31 31 31 31 31 31 31 31 32 32 32 32 33 33 33 33 32 32 32 31 30 28 27 26
33 35 37 37 36 35 34 32 32 30 26 24 25 27 31 34 35 34 32 31 30 29 28 28 28 27 27 27 27 28 28 28 28 28 29 29 29 29 29 29 29 29 29 30 30 30 30 30 30 30 29 29 29 29 29 29 29 29 30 30 30 31 31 31 31 30 30 31 31 31 32 32 32 33 33 33 33 33 31 30 30 30 30 28 27
31 32 34 36 38 38 37 35 33 31 28 25 25 27 30 34 35 33 32 30 29 28 27 26 26 26 26 26 27 27 27 28 28 28 28 29 29 29 29 29 29 29 29 29 30 30 30 30 30 30 29 29 29 29 29 29 29 29 30 30 31 31 30 30 30 30 30 30 31 31 31 32 32 33 33 33 33 33 32 31 30 29 29 29 28
32 32 32 32 34 36 37 36 34 32 28 25 25 27 30 33 34 32 30 29 27 26 26 25 25 25 25 26 27 27 28 28 28 28 29 29 29 29 29 29 29 29 29 30 30 30 30 30 30 30 30 30 30 30 29 29 30 30 30 30 31 31 30 30 30 30 30 30 30 31 31 32 32 32 33 33 33 32 31 31 30 29 28 28 28
33 34 34 34 33 33 33 33 33 31 28 25 25 27 30 32 32 30 29 27 26 25 25 25 25 25 26 27 27 28 28 29 29 29 29 29 29 29 29 29 29 29 29 30 30 30 30 30 30 30 30 30 30 30 30 30 30 30 30 31 31 31 30 30 30 30 30 30 30 31 31 32 32 32 32 32 32 32 31 30 30 29 29 28 27
32 34 35 36 36 35 34 33 32 31 29 27 26 26 29 31 30 28 28 27 25 25 25 25 26 26 27 28 28 29 29 29 29 30 30 29 29 29 29 29 29 29 30 30 30 30 30 30 30 31 31 31 31 31 31 31 31 31 31 31 31 31 30 30 30 30 30 30 30 31 31 32 32 32 32 32 31 31 31 30 30 29 29 28 27
31 33 35 36 37 37 36 35 34 32 31 29 26 26 28 29 28 28 28 27 26 26 26 27 27 28 28 29 29 30 30 30 30 30 30 29 29 29 29 29 29 29 29 30 30 30 30 30 31 31 31 31 31 31 31 31 31 31 31 31 31 31 31 30 30 30 30 31 31 31 31 32 32 32 32 32 31 30 30 30 30 29 29 30 29
33 34 35 35 36 36 36 36 36 34 33 31 27 26 27 28 28 28 28 27 27 28 28 28 28 29 29 30 30 30 30 30 29 29 30 29 29 29 29 29 29 29 29 30 30 30 30 31 31 31 31 32 32 32 32 32 32 31 31 31 31 31 31 31 30 30 30 31 31 31 31 32 32 32 32 32 31 30 29 29 30 30 30 30 30
35 35 35 35 36 36 37 37 36 35 34 32 28 25 26 27 28 28 28 28 28 29 29 29 29 29 30 30 31 30 30 30 29 29 29 29 29 28 29 29 29 29 29 29 30 30 30 31 31 32 32 32 32 32 32 32 32 32 32 32 31 31 31 31 31 31 31 31 31 32 32 32 32 32 31 31 31 31 30 29 28 29 29 30 31
36 36 37 37 37 38 38 37 35 34 34 32 28 25 26 28 29 29 29 28 28 28 29 29 29 30 31 31 31 31 30 30 29 28 29 29 29 28 28 29 29 29 29 29 30 30 31 31 31 32 32 33 33 33 33 32 32 32 32 32 31 31 31 31 31 32 32 32 32 32 33 33 32 32 31 30 30 30 31 30 29 29 29 29 29
36 36 37 38 38 38 37 36 34 34 34 31 27 25 27 29 30 30 29 28 27 28 29 30 30 31 31 32 31 31 31 30 29 29 28 28 28 28 28 28 29 29 29 30 30 30 31 31 32 32 32 33 33 33 33 33 32 32 32 31 31 31 31 31 31 31 31 32 32 32 33 33 33 32 31 30 29 29 30 31 31 31 30 29 28
34 35 36 37 37 37 36 34 34 34 33 29 26 26 28 30 30 29 27 27 28 29 30 31 31 32 33 32 32 31 31 30 29 29 28 28 28 27 28 28 29 29 30 30 30 31 31 31 31 32 33 33 33 34 33 33 33 32 32 31 31 30 30 30 31 31 31 31 32 32 33 33 33 32 31 30 29 29 29 30 30 30 31 30 29
32 34 34 35 36 36 35 34 34 33 32 28 26 26 28 29 28 26 26 27 28 29 30 31 32 33 33 33 32 32 31 30 29 29 28 28 28 27 27 28 28 29 30 30 30 31 31 31 32 32 33 33 34 34 34 34 34 33 32 31 30 30 29 30 30 30 31 31 32 32 33 33 33 32 31 30 30 29 29 29 30 30 30 31 32
31 32 33 34 35 35 34 34 34 34 31 27 25 26 28 27 26 26 27 28 29 31 31 32 33 33 33 33 33 32 31 30 30 29 29 29 28 27 27 28 28 29 29 30 30 31 31 31 31 32 33 33 34 34 34 35 34 34 33 32 31 29 29 29 29 30 31 31 32 33 33 33 33 32 30 29 29 29 29 30 30 30 30 30 32
30 31 32 33 33 33 34 34 34 33 31 28 26 27 28 28 28 29 30 31 32 33 33 33 33 34 34 33 33 32 31 30 30 29 29 29 29 28 28 28 28 29 29 29 30 30 30 31 31 32 32 33 34 34 35 35 35 34 34 33 31 30 29 29 29 29 30 31 32 32 33 33 32 31 30 29 29 29 30 30 30 31 31 31 32
30 31 32 33 33 34 34 35 34 33 31 29 28 29 30 30 32 33 34 34 35 35 34 34 34 34 34 33 33 32 31 31 30 30 30 29 29 29 28 29 29 29 29 30 30 30 30 31 32 32 33 33 34 34 35 35 35 35 34 33 32 31 30 29 29 30 30 30 31 32 32 32 31 30 29 29 28 28 29 29 30 30 31 32 32
31 31 32 33 34 35 35 35 35 34 32 31 31 32 32 33 34 34 34 35 35 35 35 35 35 34 34 33 32 32 31 31 31 31 31 30 30 30 29 29 29 29 30 30 30 30 30 31 32 33 33 34 34 34 35 35 35 35 34 34 32 31 30 29 29 30 30 30 31 31 31 31 30 29 29 28 28 28 27 28 29 29 30 31 32
32 32 33 34 35 36 36 37 36 35 33 33 33 35 36 35 34 34 34 35 36 36 36 36 36 35 34 33 32 31 31 31 32 31 31 31 31 30 30 30 30 30 30 31 31 31 31 32 33 33 34 35 35 35 35 35 34 34 34 33 32 31 30 30 30 30 30 31 31 31 31 31 29 29 29 28 28 28 28 28 29 29 30 30 31
32 33 34 35 37 38 38 38 37 36 35 35 36 37 38 37 36 35 36 37 38 37 37 36 36 35 34 33 33 32 31 32 32 32 32 32 32 31 31 31 31 31 31 31 31 32 32 33 34 34 35 35 35 35 35 35 34 34 33 32 32 31 30 29 30 30 30 31 31 31 31 30 29 28 28 28 28 28 28 28 29 30 30 30 30
34 35 36 38 39 40 40 40 39 38 38 38 38 39 39 39 38 38 39 39 40 40 39 37 36 34 33 33 33 32 32 31 32 33 33 33 33 33 32 32 32 32 32 32 32 33 33 34 34 35 36 36 35 35 35 35 34 33 33 32 31 30 29 29 29 30 30 31 31 31 31 30 29 28 27 27 28 28 28 28 29 30 31 29 28
36 37 39 40 41 42 42 42 41 41 41 41 40 41 41 41 40 40 41 42 43 42 41 39 37 35 34 33 33 33 33 32 32 33 33 33 34 34 33 33 33 33 33 33 34 34 35 35 35 36 36 36 36 36 35 35 34 33 32 32 30 29 29 28 29 29 30 30 31 31 31 29 28 27 27 27 28 29 29 28 28 29 30 30 29
39 40 41 43 43 44 44 44 44 43 43 43 43 43 43 42 42 43 43 44 45 44 42 40 37 36 35 34 34 34 34 34 34 34 33 33 34 35 35 34 34 34 34 35 35 35 35 35 36 36 36 36 36 36 35 35 33 32 32 31 30 29 28 28 28 29 29 30 30 31 30 29 27 27 27 28 28 29 29 29 29 29 30 31 31
42 43 44 45 46 46 46 46 46 46 46 46 45 45 45 44 45 46 46 46 46 45 43 40 38 37 36 35 35 35 35 35 35 34 34 34 34 35 35 35 35 36 36 36 36 36 36 36 36 36 36 36 36 36 36 34 33 32 31 30 29 28 27 28 28 29 29 30 30 30 30 28 26 27 27 28 29 29 29 30 30 30 31 32 33
45 46 47 47 47 47 48 48 48 48 48 48 47 46 47 47 48 48 48 47 47 45 43 40 39 38 37 36 36 36 36 36 36 35 35 35 35 36 36 36 36 36 37 37 37 37 36 37 37 37 37 37 36 36 36 34 32 31 30 30 28 27 27 27 28 29 29 30 31 30 29 27 26 27 27 27 28 29 30 31 31 31 32 33 34
47 47 47 47 48 49 49 50 50 50 50 50 49 49 49 49 49 49 48 47 46 44 42 40 40 39 38 37 37 37 37 37 37 37 37 37 37 37 37 37 37 37 37 38 38 37 37 38 38 38 38 37 36 36 36 34 31 29 29 29 28 26 26 27 28 28 29 30 30 30 28 26 26 27 27 27 27 28 29 30 31 32 33 34 35
46 46 46 47 48 49 50 51 51 51 51 51 50 50 50 49 49 49 48 47 45 42 41 40 40 40 39 39 38 37 37 37 38 38 38 38 38 38 39 39 39 39 39 39 39 38 38 39 39 38 38 38 37 36 35 33 30 28 28 28 26 25 25 26 27 28 29 30 30 28 27 26 26 27 27 27 27 27 28 29 31 32 33 35 36
43 44 45 46 48 48 49 49 50 50 49 49 49 49 49 49 49 48 46 45 42 41 41 41 41 41 40 40 39 38 38 38 38 39 39 39 40 39 39 40 41 41 41 41 40 39 39 39 39 38 39 38 37 35 34 31 28 27 28 27 26 24 24 25 26 27 28 28 28 27 26 26 26 26 26 27 27 27 28 29 30 32 33 34 35
39 41 42 43 44 45 45 46 46 47 48 48 49 49 49 49 48 46 44 43 41 41 41 41 42 42 41 40 39 39 39 39 39 39 39 40 40 40 40 41 42 43 43 42 41 40 39 39 39 38 39 38 36 35 33 30 27 26 27 26 25 24 24 25 26 26 27 27 26 25 25 26 26 26 26 27 27 27 28 29 30 32 34 35 35
38 39 40 41 42 43 44 45 46 47 48 48 49 49 48 47 46 44 43 42 42 42 42 42 42 41 40 39 39 39 39 39 39 39 39 40 40 40 41 42 43 44 43 42 41 40 39 39 38 38 38 37 36 34 31 28 26 25 26 25 24 23 23 24 25 26 27 27 25 25 25 25 26 26 25 26 27 27 28 30 31 33 35 36 36
40 41 42 43 44 45 46 46 47 48 48 48 48 47 46 45 44 43 43 42 43 43 43 43 41 40 38 37 37 38 39 39 39 39 40 40 40 41 43 43 44 44 43 41 40 39 39 38 37 37 36 35 34 32 29 27 25 25 25 24 23 22 22 24 24 25 26 26 24 24 25 25 26 26 25 25 26 27 28 30 32 33 35 37 37
41 43 43 44 45 46 47 47 48 48 48 47 47 46 45 44 44 43 43 44 44 44 43 41 40 39 38 37 37 37 37 38 38 39 40 40 41 43 43 43 43 43 42 40 38 37 37 36 35 34 34 33 32 29 27 25 24 24 24 23 21 21 22 23 24 25 25 24 23 23 24 25 25 25 25 25 26 28 29 30 31 33 35 37 37
43 44 45 46 47 47 47 47 47 47 47 47 47 46 46 45 45 44 44 44 43 42 40 39 38 38 38 38 37 37 37 38 39 40 41 41 42 43 43 42 42 41 40 38 36 34 34 33 33 32 31 30 28 27 25 24 24 24 24 22 20 21 22 22 23 24 24 23 22 23 24 24 24 24 24 25 26 27 29 31 32 32 34 35 36
45 46 47 47 48 48 48 48 48 48 47 47 47 47 46 45 44 43 41 40 39 39 38 37 37 37 37 37 37 37 38 39 39 40 41 41 42 42 41 40 39 38 37 35 33 32 31 31 31 31 29 27 26 25 23 23 24 24 22 20 19 20 21 22 23 23 22 21 22 23 23 23 23 24 24 25 26 27 28 30 32 33 33 34 35
46 47 47 48 48 47 47 47 46 45 45 44 43 43 42 41 40 39 38 37 37 36 36 36 36 36 37 37 38 39 39 40 40 40 40 40 40 40 39 38 36 35 34 33 32 31 30 29 28 28 27 25 24 24 23 23 23 22 20 19 19 20 20 21 22 22 21 20 21 22 22 22 22 23 24 25 27 28 28 30 32 33 34 34 35
46 46 46 45 45 44 44 43 42 42 41 40 39 39 38 38 37 36 36 36 35 35 35 36 36 37 38 38 39 39 40 40 40 40 39 38 37 36 35 34 33 32 32 31 31 30 29 28 27 26 25 24 23 23 23 23 22 20 18 18 18 19 20 21 21 20 19 20 21 21 21 21 22 23 24 26 27 28 30 31 32 33 34 35 36
45 44 44 43 42 42 41 40 39 39 38 37 37 37 36 36 36 36 35 35 36 36 36 36 37 38 38 38 38 39 39 39 38 38 37 36 35 33 32 31 31 30 30 30 30 29 28 27 25 25 24 23 23 23 22 21 20 18 17 17 18 18 19 20 19 19 19 19 20 20 20 21 22 23 24 25 27 28 30 31 32 32 33 35 36
43 43 42 41 40 40 39 38 37 36 36 35 35 35 35 36 36 36 36 36 36 36 36 37 37 37 37 37 37 37 37 36 36 35 34 33 32 31 30 30 29 29 29 29 28 28 27 25 24 24 23 22 22 22 21 19 17 17 17 17 17 18 19 19 18 18 18 18 18 19 19 20 22 23 24 25 26 28 30 30 31 32 33 34 36
42 42 41 40 39 38 37 37 36 36 36 35 35 35 35 35 36 36 36 36 36 36 36 36 35 35 35 35 35 34 34 33 32 31 31 30 30 29 29 29 29 28 28 27 27 26 25 24 23 23 22 21 21 20 18 17 16 16 16 16 16 17 18 17 17 17 17 17 17 18 19 20 21 23 24 25 27 28 29 30 30 31 32 34 36
42 41 40 39 38 37 37 36 36 36 36 36 35 35 35 35 35 35 35 35 35 35 34 34 33 33 33 32 32 31 30 30 29 29 28 28 28 28 28 28 27 27 26 26 25 24 23 23 22 22 21 20 19 18 16 15 15 15 15 15 16 16 16 16 16 16 16 16 16 17 18 20 22 23 24 26 27 27 28 29 29 30 32 34 36
40 39 39 38 37 37 36 36 35 35 35 34 34 34 34 34 34 33 33 33 33 32 31 31 30 30 30 30 29 28 28 27 27 27 27 27 27 27 27 26 25 25 24 24 23 22 22 22 21 20 19 18 17 15 15 15 15 14 14 14 15 15 15 15 15 15 14 14 15 17 18 19 21 23 24 26 26 26 27 28 29 30 32 35 37
39 38 37 37 36 35 35 34 34 33 33 32 32 32 32 32 31 31 30 30 30 29 29 28 28 28 27 27 27 26 26 26 26 26 26 26 25 25 25 24 23 23 22 21 21 21 21 20 20 18 17 16 15 14 14 14 14 13 13 14 14 14 14 14 14 13 13 14 15 16 18 19 21 23 24 25 25 26 26 28 29 31 33 36 38
38 37 37 36 35 34 34 33 32 32 31 31 30 30 30 30 29 29 28 28 27 27 26 26 26 26 25 25 25 25 25 25 25 24 24 24 23 23 22 21 21 20 20 19 19 19 19 19 17 16 14 14 13 13 13 13 13 12 13 13 13 13 13 13 12 12 12 14 15 16 17 19 21 23 24 24 24 25 26 27 29 31 34 37 39
38 37 36 35 34 34 33 32 31 30 29 29 29 28 28 28 27 27 26 26 25 25 25 24 24 24 24 24 24 24 23 23 23 22 22 21 21 20 19 18 18 18 18 18 18 18 17 16 15 13 13 13 13 13 12 12 12 12 12 12 12 12 11 11 11 11 12 13 15 16 17 19 21 22 22 23 23 24 25 27 29 31 34 36 38
37 37 36 35 34 33 32 31 30 29 28 28 27 27 26 25 25 25 24 24 23 23 23 23 23 23 23 23 23 22 22 22 21 20 19 19 18 17 16 16 15 15 15 16 16 15 14 13 12 12 12 12 12 12 12 11 11 12 12 11 11 11 10 10 10 10 12 13 15 16 17 19 20 21 21 22 22 23 25 27 29 32 34 35 36
37 36 35 34 33 32 31 30 29 28 27 27 26 25 24 23 23 23 22 22 22 22 22 22 22 22 21 21 21 21 21 20 19 18 17 16 15 15 14 13 13 13 14 14 13 12 11 11 11 12 12 12 11 11 11 11 11 11 11 10 10 10 9 8 9 10 12 13 14 15 17 18 19 20 20 21 21 22 25 28 30 32 33 34 35
35 35 34 33 32 31 30 29 28 27 26 25 25 23 22 22 21 21 21 21 21 21 21 21 20 20 20 20 20 20 19 18 17 16 15 14 13 12 12 11 11 11 11 11 11 10 10 10 11 11 11 11 11 11 10 11 11 10 10 9 9 8 8 8 9 10 11 12 14 15 17 17 18 18 19 20 21 22 25 28 30 32 33 33 33
Wind_Direction
281 286 293 298 303 306 308 313 318 321 325 329 328 326 324 322 321 320 319 319 319 318 318 316 314 312 310 309 308 308 308 308 309 309 309 310 310 309 309 309 309 310 312 313 313 314 314 313 313 312 312 311 311 311 311 311 312 311 311 311 312 311 312 312 312 313 314 314 313 314 314 314 314 313 313 312 311 310 310 309 309 308 306 305 303
281 286 292 297 300 303 306 311 315 316 320 324 325 324 325 324 323 321 320 319 319 319 318 317 315 313 311 310 309 309 309 309 309 309 309 309 309 309 308 309 309 310 312 313 314 314 314 313 313 312 311 311 310 310 310 311 311 311 311 311 311 311 311 311 312 312 313 313 313 313 313 313 313 312 312 312 311 310 310 309 309 308 307 305 304
280 285 291 294 296 300 303 309 312 311 314 319 322 324 326 326 325 323 321 319 319 318 318 317 316 315 313 311 310 310 310 310 310 309 309 309 308 308 308 309 310 311 312 313 313 313 312 312 311 311 310 310 310 310 310 310 311 311 311 311 310 311 311 311 311 312 312 313 313 313 312 312 312 312 311 311 310 309 309 309 309 308 307 306 304
279 283 288 291 293 297 300 306 309 308 310 315 319 323 326 327 326 323 321 319 319 318 318 317 316 315 314 313 312 312 311 311 310 310 309 309 309 308 309 309 310 311 312 312 312 312 311 311 310 310 309 309 310 310 310 311 311 311 311 310 310 311 311 311 311 312 312 312 312 312 312 312 312 311 310 310 309 309 308 308 308 307 307 306 305
278 281 285 287 290 293 297 302 306 306 308 312 318 322 325 327 326 323 321 319 319 318 318 318 317 316 316 315 314 314 313 313 312 311 311 310 309 309 309 310 310 311 312 311 311 311 311 310 310 310 310 310 311 311 311 311 311 311 311 311 311 311 311 311 312 312 312 312 313 312 312 312 311 310 310 309 309 309 308 307 306 306 305 305 304
276 279 282 285 287 290 293 298 304 306 307 311 317 321 324 326 325 323 321 320 319 319 318 318 318 317 316 316 316 315 314 314 313 312 312 311 310 310 310 311 311 312 312 312 312 312 311 311 311 311 311 312 312 312 312 312 312 312 312 312 312 312 312 312 312 313 313 313 313 312 312 312 311 310 310 308 307 307 307 306 306 305 304 303 302
281 279 279 281 283 287 291 295 301 306 306 308 313 318 322 325 324 323 321 321 320 319 319 318 318 317 317 317 317 316 315 315 314 313 313 312 312 312 312 313 313 313 314 314 314 313 313 313 313 313 313 313 313 313 313 313 313 313 312 312 312 312 312 312 313 313 313 313 313 313 313 312 311 311 310 309 307 306 306 306 306 306 305 304 304
291 290 287 284 283 285 288 292 298 303 304 306 311 317 322 324 323 322 322 322 321 320 320 319 319 319 319 319 318 317 317 316 315 314 314 314 314 314 315 315 315 316 316 316 316 315 315 315 315 315 314 314 314 314 314 314 314 313 313 313 313 313 313 313 313 313 313 313 313 313 313 313 312 311 310 309 308 307 307 306 305 305 305 304 304
291 294 297 296 293 290 290 292 296 300 303 306 311 317 321 322 322 322 322 321 321 321 322 322 323 323 322 321 320 319 318 317 317 316 316 316 317 317 318 318 318 319 318 318 318 317 317 317 317 317 316 316 316 315 315 315 314 314 314 313 313 313 313 313 313 313 313 313 314 314 314 314 313 312 311 310 309 308 307 306 305 305 304 304 305
285 289 294 298 300 300 298 297 296 299 303 307 310 315 319 321 321 320 320 320 320 321 323 324 325 325 325 324 323 321 321 319 319 319 318 319 320 320 320 320 320 321 320 320 320 319 319 319 318 318 317 317 316 316 316 315 314 314 314 313 313 313 313 314 314 314 314 314 314 315 315 314 313 312 311 310 309 308 307 307 306 305 305 305 306
281 284 288 292 296 298 299 299 298 299 303 306 307 313 317 318 319 318 318 318 319 321 323 325 326 327 327 327 325 324 323 322 322 322 321 322 323 322 322 322 322 322 322 322 322 321 321 320 319 319 318 318 317 316 316 315 315 315 314 313 313 313 314 314 314 314 314 314 315 315 315 315 314 313 312 311 310 309 308 307 306 306 305 305 304
278 280 283 287 290 292 294 296 296 297 301 304 305 310 314 316 317 316 315 316 318 320 323 325 327 328 329 329 327 326 325 323 323 323 322 323 324 323 323 323 323 323 323 323 323 322 322 321 320 320 319 318 318 317 316 316 315 315 314 313 313 313 314 314 314 314 314 314 315 316 316 315 314 313 312 312 311 309 308 308 307 307 306 306 305
277 279 281 282 283 286 288 290 291 293 298 302 304 307 312 315 315 314 313 315 317 318 321 323 325 327 328 328 328 327 326 324 324 324 323 323 324 324 324 324 324 324 324 324 324 323 323 322 321 321 320 319 318 317 317 316 316 315 314 313 313 313 313 313 313 313 314 314 315 315 315 315 314 313 313 312 310 309 308 308 307 307 307 307 306
276 279 281 280 279 279 280 282 285 289 294 299 302 306 311 314 314 312 311 314 315 317 319 321 323 326 327 327 327 326 326 324 324 324 323 323 324 325 324 324 325 325 325 325 324 324 323 323 322 322 321 320 319 318 317 317 316 315 314 313 313 313 313 313 313 314 314 314 315 315 315 314 314 313 312 311 310 309 308 307 306 306 306 306 308
276 278 279 279 278 276 276 278 282 287 291 296 300 305 310 312 312 311 310 312 315 317 319 320 322 324 326 326 326 325 325 324 323 324 323 323 324 325 324 324 325 325 325 325 324 324 324 323 323 322 321 320 319 318 318 317 316 315 314 313 313 313 313 313 313 314 314 315 315 315 315 314 314 313 312 311 310 309 308 308 307 306 306 307 310
276 277 278 279 279 278 277 278 281 285 289 293 298 305 309 312 312 310 308 310 314 318 320 320 321 323 324 325 325 324 324 323 322 323 322 322 322 324 324 324 324 325 325 325 324 324 324 324 323 323 322 320 320 319 318 317 316 315 314 313 313 313 313 313 313 314 314 314 315 315 314 314 313 312 311 310 308 307 306 306 307 307 308 309 311
277 277 278 279 280 279 278 278 279 283 287 292 298 305 309 311 310 307 306 309 313 317 320 321 322 322 323 324 324 323 323 322 321 321 321 320 321 322 323 323 323 324 324 324 324 324 324 324 324 323 323 322 321 320 319 318 316 315 314 313 312 312 312 312 312 313 313 314 314 314 314 313 313 312 311 310 308 307 306 306 308 309 311 312 313
280 278 277 277 277 277 277 278 278 281 286 291 296 304 309 309 307 305 306 309 312 315 318 320 321 321 321 321 322 321 321 320 319 319 319 319 319 321 321 321 322 323 323 323 324 324 325 325 325 325 324 323 323 321 320 318 317 315 314 313 311 311 311 311 311 312 313 313 313 313 313 313 313 312 311 310 309 309 309 309 310 311 312 314 315
282 278 275 275 275 276 276 276 277 280 285 288 294 303 306 304 302 304 308 312 314 314 315 318 319 320 319 319 319 319 319 318 318 318 317 317 317 318 318 319 320 321 321 321 322 324 325 326 325 325 325 324 323 322 320 319 317 316 314 312 311 311 310 310 311 312 312 313 313 313 313 313 313 312 311 310 309 310 311 311 312 313 314 316 316
282 277 274 273 274 274 274 274 276 279 282 285 292 300 302 300 300 303 308 312 314 314 314 315 317 317 317 317 316 316 316 315 315 315 314 314 314 315 316 316 318 319 319 319 321 323 324 324 324 324 324 323 323 321 320 319 317 316 314 312 311 310 310 310 310 311 312 312 313 313 313 313 312 311 310 310 310 311 312 313 314 314 315 315 315
280 276 273 271 271 270 271 273 275 278 280 283 289 295 297 298 298 300 304 308 311 312 312 312 314 315 315 314 313 313 312 312 312 312 311 310 310 312 313 314 315 316 316 317 319 320 322 322 322 323 323 323 322 321 319 318 317 315 314 312 310 309 309 309 310 310 311 312 313 313 313 313 311 309 308 308 308 310 311 311 311 312 312 313 315
278 274 272 271 270 269 270 272 275 277 279 283 287 290 293 295 297 299 303 307 309 310 309 309 311 311 311 310 310 309 309 309 309 308 307 307 308 309 310 311 313 313 314 315 316 317 318 319 320 320 321 321 321 320 318 317 316 314 313 311 309 308 308 308 309 310 311 312 314 314 314 313 311 308 307 307 307 308 308 308 308 309 311 314 317
276 272 270 270 269 270 271 272 274 276 278 282 286 288 291 294 297 301 305 308 308 306 306 307 307 307 307 307 306 306 306 305 306 305 305 305 305 306 307 309 310 310 311 312 313 314 315 316 317 318 318 319 319 319 318 316 315 313 311 309 307 306 306 307 308 310 311 313 315 315 314 313 311 308 308 308 308 308 308 308 308 310 312 316 319
274 270 268 267 267 269 270 272 273 275 277 281 284 286 290 295 298 302 306 307 306 304 303 304 304 304 304 304 303 303 303 302 303 303 303 303 303 303 305 306 307 308 309 310 311 312 313 314 315 316 316 317 317 317 316 316 314 313 310 307 305 304 304 306 307 309 311 314 315 316 315 314 311 308 307 308 307 307 307 308 309 311 314 317 321
272 268 265 265 265 267 269 271 273 275 278 281 283 286 290 294 296 299 303 305 305 303 302 301 300 300 300 300 300 300 300 300 300 301 302 302 301 301 302 303 304 305 306 308 309 310 311 312 313 314 315 316 316 315 315 314 314 312 309 305 303 302 303 304 306 308 311 314 315 316 316 313 311 309 308 307 306 305 307 309 311 313 314 317 323
270 267 265 264 264 266 268 270 273 275 277 281 284 287 289 292 294 296 299 302 303 302 300 298 297 297 297 297 297 297 297 297 298 299 300 300 299 299 299 300 301 302 304 306 307 308 309 310 312 313 314 314 314 314 313 313 312 310 307 304 302 301 301 303 305 308 311 314 315 316 315 313 310 308 307 307 306 306 308 310 312 313 314 317 324
269 267 265 264 264 266 268 270 273 275 278 281 284 286 288 290 292 294 297 299 301 301 298 295 295 295 296 296 295 295 294 294 295 296 298 298 297 297 298 298 299 300 302 304 304 305 307 309 310 311 312 312 313 312 311 311 310 308 305 302 300 300 300 302 304 307 310 313 315 315 314 312 309 307 307 307 307 309 310 312 313 314 317 321 325
270 267 266 265 265 267 269 271 274 276 278 280 283 285 287 289 291 293 294 296 299 299 296 293 293 293 294 294 293 293 292 292 293 294 295 296 296 296 296 297 297 298 300 301 303 304 306 308 309 310 310 311 311 310 310 309 308 307 304 300 298 297 298 300 303 307 310 313 314 314 313 311 309 307 307 308 309 310 312 313 315 318 322 324 326
268 266 266 267 268 270 271 273 275 276 278 280 283 285 286 287 289 291 292 294 297 296 292 290 291 292 293 293 292 291 291 291 291 293 294 295 295 294 294 295 296 298 299 301 302 304 306 307 308 308 308 308 308 308 307 307 306 305 302 298 297 296 297 298 302 306 310 312 314 314 313 310 308 307 308 310 311 312 312 314 317 321 324 325 325
266 266 267 269 271 272 274 275 277 278 280 281 283 284 285 286 287 289 291 293 294 291 288 288 290 291 292 292 291 290 290 290 290 292 293 293 294 294 294 295 296 298 299 301 303 305 306 306 305 305 304 304 304 304 304 304 304 302 298 295 295 295 295 297 302 306 309 312 314 314 311 308 307 308 310 311 312 311 313 316 320 323 324 324 324
270 270 271 272 273 274 276 277 279 280 281 282 282 283 284 285 286 288 290 291 289 286 284 287 290 290 290 290 290 289 289 289 289 290 291 292 293 294 294 295 296 298 299 301 303 304 304 304 302 301 301 300 300 301 301 302 301 298 294 292 292 292 292 296 301 305 309 312 314 312 309 307 307 309 310 310 310 312 315 319 322 322 322 323 324
274 273 273 274 275 276 277 278 280 280 281 282 282 283 284 285 287 288 288 287 285 282 283 287 290 290 288 288 288 288 287 287 288 289 290 291 292 293 294 296 297 298 300 301 302 303 302 301 299 298 296 296 297 298 298 298 298 294 291 290 290 290 292 295 299 304 309 312 313 309 307 307 308 310 311 310 312 316 319 320 321 321 321 324 326
277 276 277 277 278 279 280 281 281 282 283 284 284 285 286 287 287 287 286 284 282 282 284 288 290 290 287 285 285 286 286 286 287 288 289 290 291 292 294 295 296 298 299 301 301 301 299 297 296 294 293 293 294 295 295 295 294 290 287 287 287 288 291 295 299 305 309 312 311 307 306 307 309 310 311 312 315 319 321 321 321 322 322 325 327
283 283 283 283 283 284 285 285 285 286 286 286 286 287 287 287 287 287 286 284 283 283 286 289 290 288 285 284 283 284 284 285 286 287 288 289 291 292 294 295 296 297 298 299 299 298 297 295 293 291 290 290 291 293 293 293 290 286 283 284 285 287 289 294 299 306 310 311 309 307 307 308 309 309 312 315 317 320 321 321 322 324 324 326 328
288 288 288 287 287 287 287 287 287 287 287 287 287 287 287 287 287 287 286 285 285 287 288 289 288 285 283 282 282 283 284 284 285 287 288 289 290 292 293 294 295 296 297 297 297 296 295 293 291 289 288 289 290 291 292 290 286 281 279 281 283 285 288 294 300 306 309 310 308 308 308 309 309 311 314 317 319 320 322 323 324 326 326 327 330
289 288 288 288 287 287 287 287 287 287 287 287 288 288 287 287 287 287 287 287 288 288 287 286 285 283 282 282 282 283 284 284 285 286 288 289 291 292 293 294 295 295 296 296 295 294 293 291 289 287 287 288 289 290 290 287 281 277 276 278 280 283 288 294 301 306 308 308 307 307 308 308 310 313 316 318 320 321 323 324 325 327 327 329 332
288 288 287 287 287 287 287 286 286 287 287 287 287 287 287 287 287 287 287 287 286 285 284 283 282 282 282 282 282 283 284 285 286 287 289 290 291 292 293 294 294 295 295 295 293 292 290 288 287 286 286 287 288 287 285 281 276 273 273 275 279 283 288 295 301 305 307 307 306 306 306 308 311 314 316 318 320 322 324 325 325 327 329 331 332
289 289 288 288 287 287 287 286 286 286 286 287 287 287 287 287 287 286 286 285 284 283 283 282 282 282 282 283 283 284 285 286 287 289 290 290 291 292 293 293 294 294 294 293 291 290 287 286 285 285 286 286 284 281 279 275 271 269 271 273 277 282 289 296 301 305 306 305 304 305 307 309 312 314 316 319 321 323 324 326 326 328 332 332 332
290 290 290 289 289 289 288 288 288 288 288 288 288 288 288 288 287 287 286 285 284 284 284 284 284 284 284 284 285 286 286 287 288 289 290 290 291 292 292 293 293 292 291 291 290 288 286 284 283 283 283 282 279 275 272 269 267 267 269 271 275 282 289 296 301 304 304 303 303 305 308 310 313 315 316 319 322 324 325 327 329 331 333 333 333
292 292 292 292 292 292 292 292 292 291 291 291 290 290 289 289 288 287 287 286 286 285 285 285 285 285 285 286 286 287 288 288 289 289 290 290 291 291 291 292 291 290 289 288 287 287 286 284 283 282 280 277 273 270 268 266 265 265 266 268 275 282 289 296 301 302 301 301 302 305 308 310 312 315 318 320 323 325 327 329 332 333 332 333 335
294 294 294 294 294 293 293 293 293 293 292 292 291 290 289 289 288 288 287 287 286 286 286 286 286 286 287 287 287 288 288 288 289 290 290 290 290 290 289 289 287 286 286 285 285 285 285 284 282 280 276 272 269 266 265 264 263 262 262 267 275 283 290 296 299 299 298 300 304 306 308 311 313 317 320 321 324 327 329 331 333 332 332 335 338
296 295 295 295 295 294 294 293 293 293 292 292 291 290 289 289 289 288 288 288 288 287 287 287 287 287 287 288 288 288 289 289 290 290 290 290 289 288 287 286 285 284 283 283 284 284 283 282 279 276 272 268 265 263 262 261 259 258 260 267 276 285 292 295 296 296 297 302 305 307 309 312 315 317 320 322 325 328 330 331 332 332 334 338 341
297 297 297 296 296 296 295 294 294 294 293 293 292 291 291 290 290 289 289 289 288 288 288 288 288 288 288 289 289 289 290 290 290 290 289 288 287 286 285 284 283 283 283 283 283 283 281 278 275 271 268 265 262 259 257 254 253 255 260 269 278 286 292 293 293 295 299 303 305 307 310 313 315 318 320 323 326 329 331 331 332 334 337 340 342
298 297 297 297 296 296 295 295 295 294 294 294 293 292 291 291 290 290 290 290 289 290 290 290 290 291 291 291 291 292 292 291 291 289 288 287 285 285 284 283 283 283 283 283 282 281 278 274 270 268 265 261 258 255 250 247 249 254 261 271 280 286 290 290 291 295 300 303 305 308 311 313 316 318 321 324 327 330 331 331 333 336 339 341 343
297 297 297 296 296 295 295 295 294 294 294 294 293 293 292 292 292 292 292 292 293 293 293 294 294 294 294 294 294 293 293 292 290 289 288 286 285 284 284 283 283 282 282 282 281 279 275 271 267 265 262 258 254 249 244 243 248 255 263 274 282 285 286 288 291 296 300 302 305 308 311 314 316 319 321 325 328 331 332 332 334 338 341 342 344
297 297 296 296 295 295 295 295 295 295 295 295 294 294 294 294 294 295 295 296 297 297 297 298 298 297 297 297 296 295 294 292 290 289 288 286 286 285 284 283 282 281 280 280 278 275 271 268 264 261 258 253 247 241 239 241 248 257 268 277 281 281 283 287 291 296 300 302 305 309 312 315 317 319 322 326 330 332 333 334 337 340 342 343 343
296 296 295 295 295 295 295 296 296 296 296 296 295 295 295 296 297 298 299 299 300 301 301 300 300 299 299 298 297 296 294 293 291 290 289 287 287 285 283 282 281 279 278 276 273 270 267 264 260 256 251 244 237 234 236 242 251 261 271 276 277 278 282 287 292 296 299 302 306 310 314 316 318 320 323 328 331 333 334 336 339 342 344 343 341
294 294 294 294 294 295 295 295 295 295 295 295 295 295 296 297 298 299 301 302 302 302 303 302 302 302 301 300 298 297 295 294 293 292 291 290 288 286 284 282 280 279 276 273 269 265 261 258 255 249 240 233 230 231 237 245 255 265 271 272 273 276 281 286 292 297 299 302 307 313 316 318 319 321 325 330 332 334 335 338 341 344 343 342 340
293 292 292 293 293 294 294 294 294 294 294 294 294 295 296 297 298 300 301 302 303 304 304 303 303 303 302 301 300 299 297 296 296 296 295 292 289 286 284 281 278 275 272 267 262 259 255 250 245 236 230 226 227 232 239 249 259 265 267 268 270 275 280 285 291 296 299 303 310 314 316 318 320 323 328 332 334 335 337 341 344 344 342 341 341
292 291 291 291 291 291 292 292 292 292 293 293 294 294 295 297 298 299 301 302 303 304 304 304 304 304 303 303 303 302 300 300 301 300 298 294 290 286 283 279 274 269 265 259 255 251 244 238 232 227 225 225 228 234 243 254 259 261 263 265 268 273 279 285 290 295 300 306 312 314 316 319 323 326 330 332 334 336 340 343 344 343 340 340 342
293 291 290 289 289 289 289 290 290 291 291 291 292 293 294 295 296 298 300 302 303 304 304 305 305 305 305 305 305 305 304 304 304 302 299 294 289 283 278 272 266 261 256 251 247 241 232 227 224 223 223 226 232 240 248 254 255 255 258 263 266 271 278 284 290 297 303 308 312 315 318 321 325 328 331 332 335 340 344 345 343 341 340 341 343